DW8790 Maspalomas ES current weather conditions

sailwx.info

Wind from 233 at 4 knots gusting 7

Air temperature 25.0° C
Dewpoint 19.4° C

Last reported at 2016-Aug-26 18:55 UTC.
Time now 2016-Aug-26 20:02 UTC

Location: N 27°46' W 015°34'.
View on Google Maps.

See reports from other nearby stations

  
Tides and Currents Weather Stations Pressure Air Temp Water Temp Dewpoint Dewpoint Depression Visibility Wind Speed Wind Dir Waves Ship Positions
date/time (UTC)wind fromknots sea level pressurealtimeterstation pressurevisibilityair tempwater tempwave heightnotes
2016-Aug-26 18:55 233 4 gusting 7 25.0
2016-Aug-26 18:50 211 2 gusting 5 25.6
2016-Aug-26 18:45 221 4 gusting 6 25.6
2016-Aug-26 18:40 216 4 gusting 6 26.1
2016-Aug-26 18:35 214 2 gusting 8 26.1
2016-Aug-26 18:30 206 2 gusting 7 26.1
2016-Aug-26 18:25 237 4 gusting 7 26.7
2016-Aug-26 18:20 224 4 gusting 7 26.7
2016-Aug-26 18:15 232 4 gusting 7 26.7
2016-Aug-26 18:10 230 4 gusting 6 27.2
2016-Aug-26 18:05 212 3 gusting 6 27.2
2016-Aug-26 17:55 222 5 gusting 8 27.2
2016-Aug-26 17:50 212 5 gusting 8 27.2
2016-Aug-26 17:45 238 5 gusting 7 27.2
2016-Aug-26 17:40 234 5 gusting 7 27.2
2016-Aug-26 17:35 248 6 gusting 8 27.2
2016-Aug-26 17:30 252 5 gusting 7 27.2
2016-Aug-26 17:25 230 5 gusting 7 27.2
2016-Aug-26 17:20 252 4 gusting 10 27.2
2016-Aug-26 17:15 233 4 gusting 7 27.2
2016-Aug-26 17:10 260 4 gusting 8 27.2
2016-Aug-26 17:05 213 4 gusting 7 27.2
2016-Aug-26 16:55 229 4 gusting 6 27.2
2016-Aug-26 16:50 226 4 gusting 6 26.7
2016-Aug-26 16:45 221 4 gusting 6 26.7
2016-Aug-26 16:40 242 5 gusting 8 26.1
2016-Aug-26 16:35 205 4 gusting 6 26.1
2016-Aug-26 16:30 239 4 gusting 7 26.7
2016-Aug-26 16:25 227 4 gusting 6 26.1
2016-Aug-26 16:20 233 4 gusting 6 26.1
2016-Aug-26 16:15 232 4 gusting 7 26.1
2016-Aug-26 16:10 260 4 gusting 7 26.1
2016-Aug-26 16:05 222 2 gusting 6 26.1
2016-Aug-26 15:55 239 6 gusting 7 25.6
2016-Aug-26 15:50 227 5 gusting 8 25.6
2016-Aug-26 15:45 183 4 gusting 8 25.6
2016-Aug-26 15:40 245 4 gusting 7 25.6
2016-Aug-26 15:35 210 2 gusting 7 26.1
2016-Aug-26 15:30 192 4 gusting 7 26.1
2016-Aug-26 15:25 211 4 gusting 7 26.1
2016-Aug-26 15:20 201 3 gusting 8 26.1
2016-Aug-26 15:15 179 2 gusting 7 26.1
2016-Aug-26 15:10 216 4 gusting 8 26.1
2016-Aug-26 15:05 216 4 gusting 8 25.6
2016-Aug-26 14:55 253 4 gusting 8 26.1
2016-Aug-26 14:50 215 6 gusting 10 25.6
2016-Aug-26 14:45 225 5 gusting 10 25.6
2016-Aug-26 14:40 244 5 gusting 11 26.1
2016-Aug-26 14:35 237 4 gusting 11 26.1
2016-Aug-26 14:30 221 6 gusting 12 26.1
2016-Aug-26 14:25 225 7 gusting 12 26.1
2016-Aug-26 14:20 231 6 gusting 11 26.1
2016-Aug-26 14:15 212 6 gusting 11 26.7
2016-Aug-26 14:10 243 6 gusting 10 26.7
2016-Aug-26 14:05 227 6 gusting 12 26.7
2016-Aug-26 13:55 224 7 gusting 12 26.7
2016-Aug-26 13:50 225 6 gusting 10 27.2
2016-Aug-26 13:45 237 7 gusting 11 26.7
2016-Aug-26 13:40 241 5 gusting 10 26.7
2016-Aug-26 13:35 244 6 gusting 11 26.7
2016-Aug-26 13:30 244 7 gusting 12 26.1
2016-Aug-26 13:25 228 6 gusting 10 26.1
2016-Aug-26 13:20 235 6 gusting 11 26.1
2016-Aug-26 13:15 249 6 gusting 12 25.6
2016-Aug-26 13:10 253 4 gusting 11 26.1
2016-Aug-26 13:05 241 6 gusting 10 26.1
2016-Aug-26 13:00 224 6 gusting 12 26.1
2016-Aug-26 12:55 248 6 gusting 11 26.1
2016-Aug-26 12:50 227 7 gusting 12 26.1
2016-Aug-26 12:40 246 6 gusting 12 26.7
2016-Aug-26 12:35 214 6 gusting 12 26.7
2016-Aug-26 12:30 205 6 gusting 11 27.2
2016-Aug-26 12:25 242 6 gusting 12 26.7
2016-Aug-26 12:20 230 6 gusting 10 26.7
2016-Aug-26 12:15 242 6 gusting 11 26.7
2016-Aug-26 12:10 271 5 gusting 10 26.7
2016-Aug-26 12:05 256 6 gusting 11 26.7
2016-Aug-26 11:55 256 5 gusting 10 26.7
2016-Aug-26 11:50 279 6 gusting 10 26.7
2016-Aug-26 11:45 245 6 gusting 10 26.7
2016-Aug-26 11:40 254 4 gusting 10 26.7
2016-Aug-26 11:35 292 3 gusting 7 26.1
2016-Aug-26 11:30 273 4 gusting 7 26.1
2016-Aug-26 11:25 286 5 gusting 8 26.1
2016-Aug-26 11:20 292 5 gusting 7 26.1
2016-Aug-26 11:15 290 4 gusting 8 26.1
2016-Aug-26 11:10 292 2 gusting 10 25.6
2016-Aug-26 11:05 255 3 gusting 7 25.6
2016-Aug-26 11:00 247 5 gusting 7 25.6
2016-Aug-26 10:55 234 2 gusting 6 25.0
2016-Aug-26 10:50 187 2 gusting 6 25.0
2016-Aug-26 10:45 160 2 gusting 10 25.0
2016-Aug-26 10:40 138 5 gusting 10 25.0
2016-Aug-26 10:35 171 4 gusting 6 25.0
2016-Aug-26 10:30 191 2 gusting 6 25.0
2016-Aug-26 10:25 187 2 gusting 5 25.0
2016-Aug-26 10:20 233 3 gusting 6 25.0
2016-Aug-26 10:15 210 1 gusting 5 24.4
2016-Aug-26 10:10 231 0 gusting 4 24.4
2016-Aug-26 10:05 223 2 gusting 5 24.4
2016-Aug-26 09:55 226 2 gusting 5 24.4
2016-Aug-26 09:50 231 2 gusting 6 24.4
2016-Aug-26 09:45 193 1 gusting 6 24.4
2016-Aug-26 09:40 163 1 gusting 7 24.4
2016-Aug-26 09:35 157 3 gusting 7 24.4
2016-Aug-26 09:30 152 3 gusting 6 23.9
2016-Aug-26 09:25 232 3 gusting 5 23.9
2016-Aug-26 09:20 233 3 gusting 6 23.9
2016-Aug-26 09:15 189 2 gusting 5 23.9
2016-Aug-26 09:10 207 1 gusting 5 23.9
2016-Aug-26 09:05 215 0 gusting 4 23.9
2016-Aug-26 08:55 184 23.9
2016-Aug-26 08:50 184 23.9
2016-Aug-26 08:45 184 0 gusting 4 23.9
2016-Aug-26 08:40 184 23.3
2016-Aug-26 08:35 184 0 gusting 2 23.3
2016-Aug-26 08:30 184 0 gusting 2 23.9
2016-Aug-26 08:25 146 0 gusting 2 23.9
2016-Aug-26 08:20 147 0 gusting 2 23.9
2016-Aug-26 08:15 166 0 gusting 1 23.9
2016-Aug-26 08:10 079 23.9
2016-Aug-26 08:05 079 23.3
2016-Aug-26 08:00 079 23.3
2016-Aug-26 07:55 078 0 gusting 2 22.8
2016-Aug-26 07:50 038 1 gusting 2 22.2
2016-Aug-26 07:45 042 1 gusting 4 22.2
2016-Aug-26 07:40 074 0 gusting 2 22.2
2016-Aug-26 07:35 088 21.7
2016-Aug-26 07:30 088 21.7
2016-Aug-26 07:25 088 21.7
2016-Aug-26 07:15 088 21.7
2016-Aug-26 07:10 088 21.1
2016-Aug-26 07:05 088 21.1
2016-Aug-26 06:55 088 21.1
2016-Aug-26 06:50 088 0 gusting 2 20.6
2016-Aug-26 06:45 088 20.6
2016-Aug-26 06:40 088 0 gusting 1 20.6
2016-Aug-26 06:35 088 20.6
2016-Aug-26 06:30 088 21.1
2016-Aug-26 06:25 088 21.1
2016-Aug-26 06:20 088 21.1
2016-Aug-26 06:15 088 21.1
2016-Aug-26 06:10 088 21.1
2016-Aug-26 06:05 088 21.1
2016-Aug-26 05:55 088 0 gusting 2 21.1
2016-Aug-26 05:45 218 21.1
2016-Aug-26 05:40 218 21.1
2016-Aug-26 05:35 218 21.1
2016-Aug-26 05:30 218 21.1
2016-Aug-26 05:25 218 21.1
2016-Aug-26 05:20 218 21.1
2016-Aug-26 05:15 218 21.1
2016-Aug-26 05:10 218 21.1
2016-Aug-26 05:05 218 21.1
2016-Aug-26 04:55 218 21.7
2016-Aug-26 04:50 218 21.7
2016-Aug-26 04:45 218 21.7
2016-Aug-26 04:40 218 21.7
2016-Aug-26 04:35 218 21.7
2016-Aug-26 04:30 335 21.7
2016-Aug-26 04:25 347 21.7
2016-Aug-26 04:20 347 21.7
2016-Aug-26 04:15 347 21.7
2016-Aug-26 04:10 347 21.7
2016-Aug-26 04:05 347 21.7
2016-Aug-26 03:55 347 21.7
2016-Aug-26 03:50 346 21.7
2016-Aug-26 03:45 346 21.7
2016-Aug-26 03:40 021 21.7
2016-Aug-26 03:35 310 0 gusting 1 21.7
2016-Aug-26 03:30 066 0 gusting 1 21.7
2016-Aug-26 03:25 066 21.7
2016-Aug-26 03:20 353 1 gusting 4 21.7
2016-Aug-26 03:15 048 22.2
2016-Aug-26 03:10 066 21.7
2016-Aug-26 03:05 348 21.7
2016-Aug-26 03:00 348 0 gusting 2 22.2
2016-Aug-26 02:55 347 0 gusting 2 21.7
2016-Aug-26 02:45 337 0 gusting 2 21.7
2016-Aug-26 02:40 345 0 gusting 2 21.7
2016-Aug-26 02:35 002 0 gusting 2 21.7
2016-Aug-26 02:30 21.7
2016-Aug-26 02:25 020 0 gusting 2 21.7
2016-Aug-26 02:15 319 2 gusting 5 21.7
2016-Aug-26 02:10 323 2 gusting 5 21.7
2016-Aug-26 02:05 293 21.7
2016-Aug-26 02:00 293 21.7
2016-Aug-26 01:55 293 21.7
2016-Aug-26 01:50 293 21.7
2016-Aug-26 01:45 293 21.7
2016-Aug-26 01:40 293 1 gusting 2 21.7
2016-Aug-26 01:35 293 1 gusting 2 22.2
2016-Aug-26 01:30 293 1 gusting 2 22.2
2016-Aug-26 01:25 293 22.2
2016-Aug-26 01:20 293 22.2
2016-Aug-26 01:15 293 22.2
2016-Aug-26 01:10 293 22.2
2016-Aug-26 01:05 293 22.2
2016-Aug-26 01:00 293 22.2
2016-Aug-26 00:55 293 22.2
2016-Aug-26 00:50 293 22.2
2016-Aug-26 00:45 293 22.2
2016-Aug-26 00:40 293 22.2
2016-Aug-26 00:35 293 22.2
2016-Aug-26 00:30 293 22.2
2016-Aug-26 00:25 293 22.2
2016-Aug-26 00:20 293 22.2
2016-Aug-26 00:15 293 22.2
2016-Aug-26 00:10 293 22.2
2016-Aug-26 00:05 293 22.2
2016-Aug-26 00:00 293 22.2
2016-Aug-25 23:55 293 22.2
2016-Aug-25 23:50 293 22.2
2016-Aug-25 23:45 293 22.2
2016-Aug-25 23:40 293 22.2
2016-Aug-25 23:35 293 22.2
2016-Aug-25 23:30 293 22.2
2016-Aug-25 23:25 293 22.2
2016-Aug-25 23:20 293 22.2
2016-Aug-25 23:15 293 1 gusting 2 22.2
2016-Aug-25 23:05 300 1 gusting 4 22.2
2016-Aug-25 22:55 300 1 gusting 2 22.2
2016-Aug-25 22:50 296 0 gusting 2 22.8
2016-Aug-25 22:45 262 0 gusting 2 22.8
2016-Aug-25 22:40 252 0 gusting 2 22.8
2016-Aug-25 22:35 252 22.8
2016-Aug-25 22:30 252 22.8
2016-Aug-25 22:25 188 1 gusting 2 22.8
2016-Aug-25 22:20 149 0 gusting 2 22.8
2016-Aug-25 22:15 149 22.8
2016-Aug-25 22:10 149 22.8
2016-Aug-25 22:05 149 22.8
2016-Aug-25 21:55 149 22.8
2016-Aug-25 21:50 149 22.8
2016-Aug-25 21:45 149 22.8
2016-Aug-25 21:40 149 1 gusting 2 22.8
2016-Aug-25 21:35 149 1 gusting 2 22.8
2016-Aug-25 21:30 149 1 gusting 2 23.3
2016-Aug-25 21:25 149 23.3
2016-Aug-25 21:20 149 0 gusting 1 23.3
2016-Aug-25 21:15 149 23.3
2016-Aug-25 21:10 149 23.3
2016-Aug-25 21:05 149 0 gusting 2 23.3
2016-Aug-25 21:00 269 23.3
2016-Aug-25 20:55 269 23.3
2016-Aug-25 20:50 269 0 gusting 2 23.3
2016-Aug-25 20:45 269 0 gusting 4 23.3
2016-Aug-25 20:40 236 1 gusting 4 23.3
2016-Aug-25 20:35 266 2 gusting 6 23.3
2016-Aug-25 20:30 236 2 gusting 6 23.3
2016-Aug-25 20:25 251 4 gusting 6 23.3
2016-Aug-25 20:20 235 4 gusting 6 23.3
2016-Aug-25 20:15 232 2 gusting 5 23.3
2016-Aug-25 20:10 239 4 gusting 6 23.9
2016-Aug-25 20:05 249 6 gusting 8 23.9
2016-Aug-25 20:00 239 6 gusting 10 23.9
2016-Aug-25 19:55 269 2 gusting 8 23.9
2016-Aug-25 19:50 280 5 gusting 7 23.9
2016-Aug-25 19:45 266 6 gusting 8 23.9
2016-Aug-25 19:40 266 5 gusting 7 23.9
2016-Aug-25 19:35 278 2 gusting 6 23.9
2016-Aug-25 19:30 256 4 gusting 6 23.9
2016-Aug-25 19:25 268 2 gusting 6 23.9
2016-Aug-25 19:20 278 1 gusting 7 24.4
2016-Aug-25 19:15 283 2 gusting 6 24.4
2016-Aug-25 19:10 259 2 gusting 6 24.4
2016-Aug-25 19:05 299 3 gusting 6 24.4
2016-Aug-25 19:00 295 2 gusting 4 24.4
2016-Aug-25 18:55 241 1 gusting 4 24.4
2016-Aug-25 18:50 282 1 gusting 4 24.4
2016-Aug-25 18:45 208 1 gusting 2 23.9
2016-Aug-25 18:40 160 0 gusting 4 23.9
2016-Aug-25 18:35 226 3 gusting 6 23.9
2016-Aug-25 18:30 242 4 gusting 6 23.9
2016-Aug-25 18:25 196 2 gusting 6 23.9
2016-Aug-25 18:20 193 4 gusting 7 23.9
2016-Aug-25 18:15 240 4 gusting 7 23.9
2016-Aug-25 18:10 197 5 gusting 7 24.4
2016-Aug-25 18:05 191 3 gusting 7 24.4
2016-Aug-25 18:00 194 4 gusting 7 24.4
2016-Aug-25 17:55 147 6 gusting 10 25.0
2016-Aug-25 17:50 170 4 gusting 8 25.0
2016-Aug-25 17:45 151 4 gusting 8 25.0
2016-Aug-25 17:40 191 4 gusting 6 25.0
2016-Aug-25 17:35 168 5 gusting 7 25.0
2016-Aug-25 17:30 160 2 gusting 6 25.6
2016-Aug-25 17:25 193 4 gusting 6 25.6
2016-Aug-25 17:15 218 1 gusting 6 26.1
2016-Aug-25 17:10 215 2 gusting 6 25.6
2016-Aug-25 17:05 219 4 gusting 6 25.6
2016-Aug-25 17:00 218 4 gusting 8 25.6
2016-Aug-25 16:55 224 5 gusting 7 26.1
2016-Aug-25 16:50 213 5 gusting 10 26.1
2016-Aug-25 16:45 219 4 gusting 10 26.1
2016-Aug-25 16:40 222 5 gusting 10 26.1
2016-Aug-25 16:35 218 6 gusting 13 26.7
2016-Aug-25 16:30 220 7 gusting 12 26.7
2016-Aug-25 16:25 228 6 gusting 11 26.7
2016-Aug-25 16:20 269 6 gusting 11 26.7
2016-Aug-25 16:15 251 8 gusting 13 26.7
2016-Aug-25 16:10 266 7 gusting 13 27.2
2016-Aug-25 16:05 246 7 gusting 12 27.2
2016-Aug-25 16:00 244 8 gusting 12 26.7
2016-Aug-25 15:55 270 7 gusting 13 26.7
2016-Aug-25 15:50 248 6 gusting 13 26.7
2016-Aug-25 15:45 262 8 gusting 13 26.7
2016-Aug-25 15:40 275 6 gusting 13 27.2
2016-Aug-25 15:35 261 7 gusting 11 27.2
2016-Aug-25 15:30 269 7 gusting 14 27.2
2016-Aug-25 15:25 268 6 gusting 13 27.8
2016-Aug-25 15:20 290 6 gusting 11 27.2
2016-Aug-25 15:15 256 6 gusting 11 27.2
2016-Aug-25 15:10 251 6 gusting 10 27.2
2016-Aug-25 15:05 252 5 gusting 10 26.7
2016-Aug-25 15:00 252 4 gusting 10 26.7
2016-Aug-25 14:55 247 6 gusting 12 26.7
2016-Aug-25 14:50 249 6 gusting 12 26.7
2016-Aug-25 14:45 264 5 gusting 10 26.7
2016-Aug-25 14:40 255 5 gusting 8 26.1
2016-Aug-25 14:35 231 7 gusting 12 25.6
2016-Aug-25 14:30 213 4 gusting 11 26.1
2016-Aug-25 14:25 232 5 gusting 11 25.6
2016-Aug-25 14:20 239 4 gusting 10 26.1
2016-Aug-25 14:15 268 5 gusting 10 25.6
2016-Aug-25 14:10 242 6 gusting 10 25.6
2016-Aug-25 14:05 242 6 gusting 11 25.6
2016-Aug-25 14:00 244 6 gusting 11 25.6
2016-Aug-25 13:55 229 8 gusting 11 25.6
2016-Aug-25 13:50 225 5 gusting 8 25.6
2016-Aug-25 13:45 211 4 gusting 6 25.6
2016-Aug-25 13:40 200 6 gusting 10 25.6
2016-Aug-25 13:35 187 4 gusting 7 25.6
2016-Aug-25 13:30 193 5 gusting 7 25.0
2016-Aug-25 13:25 192 3 gusting 7 25.0
2016-Aug-25 13:20 185 4 gusting 8 25.0
2016-Aug-25 13:15 204 5 gusting 8 25.0
2016-Aug-25 13:10 197 5 gusting 8 25.6
2016-Aug-25 13:05 238 5 gusting 8 25.6
2016-Aug-25 13:00 184 4 gusting 8 25.6
2016-Aug-25 12:55 246 2 gusting 8 25.6
2016-Aug-25 12:40 234 4 gusting 8 25.6
2016-Aug-25 12:35 214 5 gusting 10 25.0
2016-Aug-25 12:30 222 5 gusting 8 25.6
2016-Aug-25 12:25 199 5 gusting 10 25.6
2016-Aug-25 12:20 236 7 gusting 10 25.6
2016-Aug-25 12:15 236 7 gusting 12 25.6
2016-Aug-25 12:10 233 6 gusting 13 25.6
2016-Aug-25 12:05 228 6 gusting 10 25.6
2016-Aug-25 12:00 214 7 gusting 13 25.6
2016-Aug-25 11:55 227 7 gusting 14 25.6
2016-Aug-25 11:50 242 8 gusting 14 25.6
2016-Aug-25 11:45 229 8 gusting 15 25.6
2016-Aug-25 11:40 228 7 gusting 10 25.6
2016-Aug-25 11:35 226 6 gusting 10 25.6
2016-Aug-25 11:30 257 6 gusting 10 25.6
2016-Aug-25 11:20 263 5 gusting 11 25.0
2016-Aug-25 11:15 222 7 gusting 13 25.0
2016-Aug-25 11:10 228 5 gusting 11 25.0
2016-Aug-25 11:05 245 5 gusting 10 25.0
2016-Aug-25 11:00 233 5 gusting 10 25.0
2016-Aug-25 10:55 236 5 gusting 8 24.4
2016-Aug-25 10:50 212 4 gusting 6 24.4
2016-Aug-25 10:45 207 2 gusting 7 24.4
2016-Aug-25 10:40 225 2 gusting 6 25.0
2016-Aug-25 10:35 283 4 gusting 6 25.0
2016-Aug-25 10:30 203 1 gusting 6 25.0
2016-Aug-25 10:25 218 4 gusting 6 24.4
2016-Aug-25 10:20 215 5 gusting 6 24.4
2016-Aug-25 10:15 170 4 gusting 10 24.4
2016-Aug-25 10:10 231 4 gusting 8 24.4
2016-Aug-25 10:05 183 3 gusting 6 24.4
2016-Aug-25 10:00 172 3 gusting 6 24.4
2016-Aug-25 09:55 220 3 gusting 6 24.4
2016-Aug-25 09:50 266 2 gusting 6 23.9
2016-Aug-25 09:45 247 4 gusting 7 23.9
2016-Aug-25 09:40 256 2 gusting 5 23.9
2016-Aug-25 09:35 288 3 gusting 6 23.9
2016-Aug-25 09:30 274 1 gusting 6 23.9
2016-Aug-25 09:25 290 4 gusting 6 23.3
2016-Aug-25 09:20 292 2 gusting 6 23.3
2016-Aug-25 09:15 247 4 gusting 6 23.3
2016-Aug-25 09:10 261 3 gusting 6 23.3
2016-Aug-25 09:05 278 4 gusting 8 23.3
2016-Aug-25 09:00 253 2 gusting 5 23.3
2016-Aug-25 08:55 263 3 gusting 5 23.9
2016-Aug-25 08:50 274 1 gusting 4 23.9
2016-Aug-25 08:45 063 24.4
2016-Aug-25 08:40 075 24.4
2016-Aug-25 08:35 075 23.9
2016-Aug-25 08:30 075 23.9
2016-Aug-25 08:25 075 23.9
2016-Aug-25 08:20 075 23.3
2016-Aug-25 08:15 075 23.3
2016-Aug-25 08:10 075 23.3
2016-Aug-25 08:05 075 1 gusting 2 23.3
2016-Aug-25 08:00 075 0 gusting 2 22.8
2016-Aug-25 07:55 075 22.8
2016-Aug-25 07:50 075 0 gusting 2 22.2
2016-Aug-25 07:45 072 22.2
2016-Aug-25 07:40 072 21.7
2016-Aug-25 07:35 072 0 gusting 1 21.1
2016-Aug-25 07:30 290 21.1
2016-Aug-25 07:25 290 21.1
2016-Aug-25 07:20 290 0 gusting 1 21.1
2016-Aug-25 07:15 290 21.1
2016-Aug-25 07:10 290 21.1
2016-Aug-25 07:05 290 21.1
2016-Aug-25 07:00 290 20.6
2016-Aug-25 06:55 290 20.6
2016-Aug-25 06:50 290 20.6
2016-Aug-25 06:45 290 20.6
2016-Aug-25 06:40 290 20.6
2016-Aug-25 06:35 290 20.6
2016-Aug-25 06:30 290 20.6
2016-Aug-25 06:25 290 20.6
2016-Aug-25 06:20 290 20.6
2016-Aug-25 06:15 290 20.6
2016-Aug-25 06:10 290 20.6
2016-Aug-25 06:05 290 20.6
2016-Aug-25 05:55 290 20.6
2016-Aug-25 05:50 290 20.6
2016-Aug-25 05:45 290 20.6
2016-Aug-25 05:40 290 20.6
2016-Aug-25 05:35 290 20.6
2016-Aug-25 05:30 290 20.6
2016-Aug-25 05:25 290 20.6
2016-Aug-25 05:20 290 20.6
2016-Aug-25 05:15 290 20.6
2016-Aug-25 05:10 290 20.6
2016-Aug-25 05:05 290 20.6
2016-Aug-25 05:00 290 20.6
2016-Aug-25 04:55 290 20.6
2016-Aug-25 04:50 290 20.6
2016-Aug-25 04:45 290 20.6
2016-Aug-25 04:40 290 20.6
2016-Aug-25 04:35 290 20.6
2016-Aug-25 04:30 290 20.6
2016-Aug-25 04:25 290 20.6
2016-Aug-25 04:20 290 20.6
2016-Aug-25 04:15 290 1 gusting 2 20.6
2016-Aug-25 04:10 290 2 gusting 2 20.6
2016-Aug-25 04:05 290 0 gusting 2 20.6
2016-Aug-25 04:00 290 21.1
2016-Aug-25 03:55 290 1 gusting 2 21.1
2016-Aug-25 03:50 290 0 gusting 2 21.1
2016-Aug-25 03:45 288 2 gusting 2 20.6
2016-Aug-25 03:40 077 20.6
2016-Aug-25 03:35 077 20.6
2016-Aug-25 03:30 077 21.1
2016-Aug-25 03:25 077 21.1
2016-Aug-25 03:20 077 21.1
2016-Aug-25 03:15 077 21.1
2016-Aug-25 03:10 077 21.1
2016-Aug-25 03:05 077 21.1
2016-Aug-25 03:00 077 21.1
2016-Aug-25 02:55 077 21.1
2016-Aug-25 02:45 077 21.1
2016-Aug-25 02:40 077 21.7
2016-Aug-25 02:35 077 21.7
2016-Aug-25 02:30 077 21.7
2016-Aug-25 02:25 077 21.7
2016-Aug-25 02:15 077 21.7
2016-Aug-25 02:10 077 21.7
2016-Aug-25 02:05 077 21.7
2016-Aug-25 01:55 077 21.7
2016-Aug-25 01:50 077 21.7
2016-Aug-25 01:45 077 21.7
2016-Aug-25 01:40 077 21.7
2016-Aug-25 01:35 077 21.7
2016-Aug-25 01:30 077 21.7
2016-Aug-25 01:25 077 21.7
2016-Aug-25 01:20 077 21.7
2016-Aug-25 01:15 077 0 gusting 2 21.7
2016-Aug-25 01:10 074 0 gusting 2 21.7
2016-Aug-25 01:05 072 21.7
2016-Aug-25 01:00 271 21.7
2016-Aug-25 00:55 271 21.7
2016-Aug-25 00:50 271 21.7
2016-Aug-25 00:45 271 21.7
2016-Aug-25 00:40 271 21.7
2016-Aug-25 00:35 271 21.7
2016-Aug-25 00:30 271 21.7
2016-Aug-25 00:25 271 0 gusting 2 21.7
2016-Aug-25 00:20 271 21.7
2016-Aug-25 00:15 271 21.7
2016-Aug-25 00:10 271 22.2
2016-Aug-25 00:05 270 22.2
2016-Aug-25 00:00 270 22.2
2016-Aug-24 23:55 270 22.2
2016-Aug-24 23:50 270 22.2
2016-Aug-24 23:45 244 2 gusting 4 22.2
2016-Aug-24 23:40 257 1 gusting 4 22.2
2016-Aug-24 23:35 265 2 gusting 4 22.2
2016-Aug-24 23:30 261 1 gusting 4 22.2
2016-Aug-24 23:25 269 1 gusting 2 22.2
2016-Aug-24 23:20 269 0 gusting 2 22.2
2016-Aug-24 23:15 263 0 gusting 2 22.2
2016-Aug-24 23:10 279 1 gusting 2 22.2
2016-Aug-24 23:05 272 1 gusting 4 22.2
2016-Aug-24 22:55 260 3 gusting 6 22.2
2016-Aug-24 22:50 266 1 gusting 5 22.2
2016-Aug-24 22:45 262 3 gusting 5 22.2
2016-Aug-24 22:40 264 1 gusting 6 22.2
2016-Aug-24 22:35 278 2 gusting 5 22.2
2016-Aug-24 22:30 264 2 gusting 4 22.2
2016-Aug-24 22:25 263 1 gusting 5 22.2
2016-Aug-24 22:20 256 2 gusting 5 22.2
2016-Aug-24 22:15 255 1 gusting 4 22.2
2016-Aug-24 22:10 271 1 gusting 4 22.2
2016-Aug-24 22:05 270 1 gusting 4 22.2
2016-Aug-24 21:55 257 1 gusting 4 22.8
2016-Aug-24 21:50 251 0 gusting 4 22.8
2016-Aug-24 21:45 266 1 gusting 4 22.8
2016-Aug-24 21:40 215 2 gusting 5 22.8
2016-Aug-24 21:35 238 1 gusting 2 22.8
2016-Aug-24 21:30 246 2 gusting 4 22.8
2016-Aug-24 21:25 239 3 gusting 5 22.8
2016-Aug-24 21:20 209 3 gusting 6 22.8
2016-Aug-24 21:15 230 2 gusting 6 23.3
2016-Aug-24 21:10 213 3 gusting 5 23.3
2016-Aug-24 21:05 237 2 gusting 4 23.3
2016-Aug-24 20:55 181 0 gusting 2 23.9
2016-Aug-24 20:50 181 0 gusting 2 23.9
2016-Aug-24 20:45 221 23.9
2016-Aug-24 20:40 221 0 gusting 2 23.9
2016-Aug-24 20:35 221 23.9
2016-Aug-24 20:30 221 23.9
2016-Aug-24 20:25 221 23.9
2016-Aug-24 20:20 221 23.9
2016-Aug-24 20:15 221 24.4
2016-Aug-24 20:10 221 1 gusting 2 24.4
2016-Aug-24 20:05 221 1 gusting 2 24.4